Frisco, NC

6:57 PM EDT on August 24, 2016 (GMT -0400)
Mitchell

Weather History for KHSE - August, 2013

Change the Weather History Date:

Thursday, August 29, 2013

  Actual Average Record
Temperature  
Mean Temperature 81 °F 78 °F  
Max Temperature 86 °F 83 °F 92 °F (1993)
Min Temperature 75 °F 72 °F 61 °F (1966)
Degree Days  
Heating Degree Days 0 0  
Month to date heating degree days 0 0  
Since 1 June heating degree days 0 3  
Since 1 July heating degree days 0 0  
Cooling Degree Days 16 13  
Month to date cooling degree days 412 394  
Year to date cooling degree days 1483 1282  
Since 1 June cooling degree days 1321 1139  
Growing Degree Days 30 (Base 50)    
Moisture  
Dew Point 72 °F    
Average Humidity 80    
Maximum Humidity 91    
Minimum Humidity 69    
Precipitation  
Precipitation 0.03 in 0.25 in 1.97 in (1947)
Month to date precipitation 3.39 6.44  
Year to date precipitation 30.82 36.70  
Snow  
Snow 0.00 in - - ()
Month to date snowfall 0.0  
Since 1 July snowfall 0.0  
Snow Depth 0.00 in    
Sea Level Pressure  
Sea Level Pressure 29.90 in    
Wind  
Wind Speed 10 mph (NNE)    
Max Wind Speed 16 mph    
Max Gust Speed 25 mph    
Visibility 9 miles    
Events Rain    
T = Trace of Precipitation, MM = Missing Value Source: NWS Daily Summary

Daily Weather History Graph

Daily Weather History Graph

Search for Another Location

Airport or City:

Trip Planner

Search our weather history database for the weather conditions in past years. The results will help you decide how hot, cold, wet, or windy it might be!

Date:

Astronomy

Aug. 29, 2013 Rise Set
Actual Time 6:32 AM EDT 7:33 PM EDT
Civil Twilight 6:06 AM EDT 7:59 PM EDT
Nautical Twilight 5:35 AM EDT 8:29 PM EDT
Astronomical Twilight 5:03 AM EDT 9:01 PM EDT
Moon 12:29 AM EDT (8/29) 2:53 PM EDT (8/29)
Length of Visible Light 13h 52m
Length of Day
13h 00m
Last Quarter, 38% of the Moon is Illuminated
Aug 29
Last Quarter
Sep 5
New
Sep 12
First Quarter
Sep 19
Full
Sep 26
Last Quarter

Hourly Weather History & Observations

Time (EDT) Temp. Heat Index Dew Point Humidity Pressure Visibility Wind Dir Wind Speed Gust Speed Precip Events Conditions
12:51 AM 81.0 °F 87.3 °F 75.9 °F 85% 29.87 in 8.0 mi WSW 11.5 mph - N/A   Overcast
2:51 AM 81.0 °F 86.7 °F 75.0 °F 82% 29.84 in 7.0 mi WSW 13.8 mph 20.7 mph N/A   Mostly Cloudy
3:51 AM 80.1 °F 85.1 °F 75.0 °F 85% 29.83 in 8.0 mi West 9.2 mph - 0.00 in Rain Light Rain
4:51 AM 78.1 °F - 75.0 °F 90% 29.83 in 5.0 mi West 10.4 mph 17.3 mph 0.03 in Rain Light Rain
5:51 AM 79.0 °F - 73.9 °F 84% 29.81 in 7.0 mi West 11.5 mph 18.4 mph 0.00 in   Overcast
6:51 AM 80.1 °F 84.5 °F 73.9 °F 81% 29.82 in 6.0 mi West 11.5 mph 19.6 mph N/A   Haze
7:51 AM 80.1 °F 84.5 °F 73.9 °F 81% 29.83 in 6.0 mi West 10.4 mph 17.3 mph N/A   Haze
12:51 PM 84.0 °F 90.2 °F 73.0 °F 69% 29.87 in 9.0 mi Variable 5.8 mph - N/A   Mostly Cloudy
1:33 PM 82.4 °F 88.2 °F 73.4 °F 74% 29.87 in 8.0 mi North 8.1 mph - N/A   Overcast
1:51 PM 80.1 °F 83.8 °F 72.0 °F 76% 29.88 in 9.0 mi NE 9.2 mph 17.3 mph 0.00 in Rain Light Rain
2:00 PM 78.8 °F - 71.6 °F 78% 29.88 in 10.0 mi NE 10.4 mph 18.4 mph 0.00 in   Overcast
2:51 PM 79.0 °F - 71.1 °F 77% 29.88 in 10.0 mi NE 6.9 mph 16.1 mph 0.00 in   Overcast
3:15 PM 78.8 °F - 71.6 °F 78% 29.88 in 10.0 mi NE 9.2 mph 18.4 mph N/A   Overcast
3:51 PM 80.1 °F 83.2 °F 70.0 °F 71% 29.89 in 10.0 mi NNE 10.4 mph 18.4 mph N/A   Overcast
4:43 PM 80.6 °F 84.6 °F 71.6 °F 74% 29.90 in 10.0 mi NNE 10.4 mph 20.7 mph N/A   Overcast
4:51 PM 80.1 °F 83.6 °F 71.1 °F 74% 29.90 in 10.0 mi NNE 11.5 mph 20.7 mph N/A   Overcast
5:51 PM 80.1 °F 83.8 °F 72.0 °F 76% 29.90 in 10.0 mi NE 12.7 mph 21.9 mph N/A   Mostly Cloudy
6:51 PM 78.1 °F - 70.0 °F 76% 29.91 in 10.0 mi NE 10.4 mph 20.7 mph N/A   Mostly Cloudy
7:51 PM 77.0 °F - 70.0 °F 79% 29.93 in 10.0 mi NE 15.0 mph 23.0 mph N/A   Mostly Cloudy
8:35 PM 75.2 °F - 69.8 °F 83% 29.93 in 10.0 mi NE 10.4 mph 23.0 mph N/A   Scattered Clouds
8:51 PM 75.9 °F - 70.0 °F 82% 29.94 in 10.0 mi NE 9.2 mph 18.4 mph N/A   Mostly Cloudy
9:00 PM 75.2 °F - 69.8 °F 83% 29.94 in 10.0 mi NE 12.7 mph 24.2 mph N/A   Scattered Clouds
9:43 PM 75.2 °F - 69.8 °F 83% 29.97 in 10.0 mi NE 10.4 mph 21.9 mph N/A   Mostly Cloudy
9:51 PM 75.9 °F - 69.1 °F 79% 29.97 in 10.0 mi NE 10.4 mph 19.6 mph N/A   Scattered Clouds
10:18 PM 75.2 °F - 69.8 °F 83% 29.97 in 10.0 mi NE 10.4 mph - N/A   Mostly Cloudy
10:51 PM 75.0 °F - 69.1 °F 82% 29.97 in 10.0 mi ENE 9.2 mph 18.4 mph N/A   Mostly Cloudy
11:04 PM 75.2 °F - 69.8 °F 83% 29.97 in 10.0 mi NE 11.5 mph 21.9 mph N/A   Scattered Clouds
11:51 PM 75.0 °F - 68.0 °F 79% 29.98 in 10.0 mi ENE 8.1 mph - N/A   Clear